EW9119 Weather Reports


Display with metric or nautical units.
time (UTC)temp
F
wind
direction
speed
MPH
gust
MPH
rain 1hr
in
rain 24hr
in
rain mn
in
humidity
%
barometer
mb
20260503003042 53 84 0.0 0.0 0.00 0.00 0.00 64 1011.7
20260503001539 54 93 0.0 0.0 0.00 0.00 0.00 64 1011.4
20260503000035 55 93 0.0 1.0 0.00 0.00 0.00 64 1011.2
20260502234530 56 348 0.0 0.0 0.00 0.00 0.00 64 1011.0
20260502233025 56 327 0.0 0.0 0.00 0.00 0.00 64 1010.8
20260502231523 57 327 0.0 1.0 0.00 0.00 0.00 63 1010.7
20260502230016 58 70 0.0 1.0 0.00 0.00 0.00 62 1010.5
20260502224512 58 206 0.0 0.0 0.00 0.00 0.00 59 1010.3
20260502223008 58 20 0.0 0.0 0.00 0.00 0.00 53 1010.1
20260502221504 58 23 0.0 0.0 0.00 0.00 0.00 52 1009.8
20260502220105 58 248 0.0 0.0 0.00 0.00 0.00 50 1009.7
20260502214556 58 313 0.0 0.0 0.00 0.00 0.00 49 1009.5
20260502213052 58 168 0.0 0.0 0.00 0.00 0.00 48 1009.4
20260502211549 58 142 0.0 0.0 0.00 0.00 0.00 47 1009.3
20260502210050 58 338 0.0 0.0 0.00 0.00 0.00 49 1009.3
20260502204539 58 144 0.0 0.0 0.00 0.00 0.00 47 1009.4
20260502203037 58 172 0.0 0.0 0.00 0.00 0.00 49 1009.6
20260502201535 58 36 0.0 0.0 0.00 0.00 0.00 49 1009.7
20260502200031 58 171 0.0 0.0 0.00 0.00 0.00 48 1010.1
20260502194523 58 162 0.0 0.0 0.00 0.00 0.00 48 1010.5
20260502193018 58 146 0.0 0.0 0.00 0.00 0.00 49 1010.5
20260502191520 57 321 0.0 0.0 0.00 0.00 0.00 51 1010.7
20260502190024 57 228 0.0 0.0 0.00 0.00 0.00 53 1010.7
20260502184506 56 234 0.0 0.0 0.00 0.00 0.00 53 1011.0
20260502183005 56 170 0.0 0.0 0.00 0.00 0.00 50 1011.1
20260502181601 55 355 0.0 0.0 0.00 0.00 0.00 54 1011.2
20260502180122 54 128 0.0 0.0 0.00 0.00 0.00 57 1011.4
20260502163031 52 292 0.0 0.0 0.00 0.00 0.00 58 1012.6
20260502161526 52 329 0.0 0.0 0.00 0.00 0.00 56 1012.8
20260502151508 53 327 0.0 0.0 0.00 0.00 0.00 57 1013.2
20260502123021 51 84 0.0 0.0 0.00 0.00 0.00 62 1011.8
20260502121521 51 22 0.0 0.0 0.00 0.00 0.00 54 1012.0
20260502114508 51 262 0.0 0.0 0.00 0.00 0.00 45 1011.8
20260502113012 50 281 0.0 0.0 0.00 0.00 0.00 43 1011.9
20260502111602 50 329 0.0 0.0 0.00 0.00 0.00 31 1011.7
20260502110100 50 351 0.0 0.0 0.00 0.00 0.00 32 1011.8
20260502104553 50 20 0.0 0.0 0.00 0.00 0.00 22 1011.5
20260502103053 50 347 0.0 0.0 0.00 0.00 0.00 9 1011.8
20260502101604 50 288 0.0 0.0 0.00 0.00 0.00 1 1011.7
20260502091524 51 57 0.0 0.0 0.00 0.00 0.00 1 1011.7
20260502070046 52 57 0.0 0.0 0.00 0.00 0.00 1 1010.6
20260502064544 52 57 0.0 0.0 0.00 0.00 0.00 1 1010.9
20260502063039 52 57 0.0 0.0 0.00 0.00 0.00 1 1011.0
20260502061535 52 57 0.0 0.0 0.00 0.00 0.00 1 1011.1
20260502060028 52 57 0.0 0.0 0.00 0.00 0.00 2 1011.3
20260502054524 52 57 0.0 0.0 0.00 0.00 0.00 6 1011.2
20260502053020 52 57 0.0 0.0 0.00 0.00 0.00 9 1011.3